EW9318 Weather Reports


time (UTC)temp
C
wind
direction
speed
KPH
gust
KPH
rain 1hr
cm
rain 24hr
cm
rain mn
cm
humidity
%
barometer
mb
20260831012516 22 202 3.2 9.7 0.00 0.99 0.99 82 1013.9
20260831012016 22 217 3.2 14.5 0.00 0.99 0.99 82 1013.8
20260831011517 22 202 4.8 14.5 0.00 0.99 0.99 82 1013.7
20260831011015 22 210 3.2 8.0 0.00 0.99 0.99 82 1013.7
20260831010537 22 227 3.2 8.0 0.00 0.99 0.99 82 1013.5
20260831010036 22 235 1.6 8.0 0.00 0.99 0.99 81 1013.5
20260831005516 22 232 3.2 8.0 0.00 0.99 0.99 81 1013.4
20260831005037 22 247 1.6 8.0 0.00 0.99 0.99 81 1013.3
20260831004516 22 199 3.2 8.0 0.00 0.99 0.99 81 1013.3
20260831004016 22 198 3.2 8.0 0.00 0.99 0.99 81 1013.2
20260831003516 22 192 3.2 6.4 0.00 0.99 0.99 81 1013.2
20260831003016 22 212 3.2 11.3 0.00 0.99 0.99 80 1013.3
20260831002517 22 230 4.8 11.3 0.00 0.99 0.99 79 1013.4
20260831002015 22 240 0.0 8.0 0.00 0.99 0.99 79 1013.3
20260831001516 22 242 1.6 8.0 0.00 0.99 0.99 79 1013.3
20260831001017 22 223 1.6 9.7 0.00 0.99 0.99 79 1013.3
20260831000516 22 243 1.6 11.3 0.00 0.99 0.99 79 1013.2
20260831000037 23 225 4.8 16.1 0.00 0.99 0.99 79 1013.3
20260830235515 23 238 9.7 22.5 0.00 0.99 0.99 78 1013.4
20260830235015 23 224 9.7 22.5 0.00 0.99 0.99 78 1013.4
20260830234516 23 235 8.0 20.9 0.00 0.99 0.99 78 1013.5
20260830234017 23 236 8.0 20.9 0.00 0.99 0.99 78 1013.5
20260830233535 23 233 8.0 17.7 0.00 0.99 0.99 77 1013.5
20260830233015 23 227 9.7 17.7 0.00 0.99 0.99 77 1013.4
20260830232516 23 227 8.0 17.7 0.00 0.99 0.99 77 1013.4
20260830232015 23 218 9.7 17.7 0.00 0.99 0.99 77 1013.4
20260830231515 23 208 4.8 16.1 0.00 0.99 0.99 77 1013.4
20260830231017 23 225 8.0 16.1 0.00 0.99 0.99 76 1013.5
20260830230557 23 203 6.4 14.5 0.00 0.99 0.99 76 1013.5
20260830230015 23 195 6.4 16.1 0.00 0.99 0.99 76 1013.6
20260830225535 23 222 6.4 16.1 0.00 0.99 0.99 75 1013.6
20260830225016 23 220 4.8 16.1 0.00 0.99 0.99 75 1013.6
20260830224515 23 231 9.7 19.3 0.00 0.99 0.99 74 1013.7
20260830224015 24 218 9.7 19.3 0.00 0.99 0.99 74 1013.7
20260830223515 24 220 9.7 17.7 0.00 0.99 0.99 73 1013.7
20260830223015 24 229 9.7 17.7 0.00 0.99 0.99 73 1013.6
20260830222516 24 236 8.0 22.5 0.00 0.99 0.99 72 1013.9
20260830222015 24 226 12.9 22.5 0.00 0.99 0.99 72 1013.7
20260830221515 25 235 11.3 22.5 0.00 0.99 0.99 71 1013.9
20260830221035 25 244 12.9 24.1 0.00 0.99 0.99 70 1013.9
20260830220516 25 225 12.9 24.1 0.00 0.99 0.99 70 1013.9
20260830220015 25 233 12.9 20.9 0.00 0.99 0.99 70 1013.9
20260830215515 25 225 11.3 20.9 0.00 0.99 0.99 69 1014.0
20260830215035 25 238 14.5 25.7 0.00 0.99 0.99 68 1014.2
20260830214515 25 229 16.1 25.7 0.00 0.99 0.99 67 1014.2
20260830214035 25 236 11.3 25.7 0.00 0.99 0.99 67 1014.2
20260830213515 25 231 14.5 25.7 0.00 0.99 0.99 67 1014.2
20260830213015 25 209 9.7 24.1 0.00 0.99 0.99 66 1014.1
20260830212535 26 223 14.5 25.7 0.00 0.99 0.99 66 1014.2
20260830212015 26 223 12.9 27.4 0.00 0.99 0.99 65 1014.2
20260830211516 26 225 12.9 27.4 0.00 0.99 0.99 65 1014.3
20260830211037 26 238 14.5 24.1 0.00 0.99 0.99 64 1014.3
20260830210515 26 218 12.9 30.6 0.00 0.99 0.99 64 1014.3
20260830210015 26 228 20.9 30.6 0.00 0.99 0.99 63 1014.3
20260830205515 26 245 14.5 25.7 0.00 0.99 0.99 63 1014.3
20260830205016 26 220 14.5 29.0 0.00 0.99 0.99 64 1014.2
20260830204515 26 227 14.5 29.0 0.00 0.99 0.99 63 1014.3
20260830204016 26 227 12.9 22.5 0.00 0.99 0.99 64 1014.2
20260830203515 27 227 11.3 25.7 0.00 0.99 0.99 63 1014.3
20260830203016 27 218 9.7 25.7 0.00 0.99 0.99 64 1014.1
20260830202515 26 225 9.7 19.3 0.00 0.99 0.99 66 1014.0
20260830202015 26 210 8.0 20.9 0.00 0.99 0.99 63 1013.9
20260830201515 26 214 9.7 32.2 0.00 0.99 0.99 62 1013.8
20260830201016 27 223 14.5 32.2 0.00 0.99 0.99 61 1013.8
20260830200516 27 222 17.7 32.2 0.00 0.99 0.99 61 1013.8
20260830200015 27 228 17.7 33.8 0.00 0.99 0.99 61 1013.7
20260830195515 27 200 14.5 33.8 0.00 0.99 0.99 61 1013.8
20260830195035 27 208 19.3 35.4 0.00 0.99 0.99 61 1013.8
20260830194515 27 185 11.3 35.4 0.00 0.99 0.99 62 1013.8
20260830194015 27 228 19.3 37.0 0.00 0.99 0.99 61 1013.7
20260830193535 27 237 22.5 38.6 0.03 0.99 0.99 61 1013.8
20260830193015 27 236 19.3 38.6 0.03 0.99 0.99 61 1013.8
20260830192515 27 216 19.3 32.2 0.03 0.99 0.99 62 1013.8
20260830192015 27 223 17.7 37.0 0.03 0.99 0.99 65 1013.7
20260830191515 27 192 16.1 37.0 0.05 0.99 0.99 64 1013.6
20260830191015 26 228 20.9 37.0 0.08 0.99 0.99 66 1013.6
20260830190515 26 185 17.7 37.0 0.08 0.99 0.99 66 1013.8
20260830190038 26 209 16.1 29.0 0.10 0.99 0.99 67 1013.6
20260830185517 26 201 14.5 33.8 0.10 0.99 0.99 68 1013.5
20260830185017 26 199 16.1 33.8 0.13 0.99 0.99 68 1013.6
20260830184516 26 193 16.1 30.6 0.13 0.99 0.99 68 1013.7
20260830184017 26 193 16.1 30.6 0.15 0.99 0.99 68 1013.6
20260830183537 26 200 12.9 37.0 0.15 0.97 0.97 69 1013.6
20260830183017 26 190 14.5 37.0 0.15 0.97 0.97 71 1013.6
20260830182517 25 177 14.5 33.8 0.15 0.97 0.97 71 1013.6
20260830182017 25 189 14.5 33.8 0.18 0.97 0.97 72 1013.6
20260830181537 25 191 11.3 35.4 0.15 0.94 0.94 73 1013.7
20260830181017 25 185 16.1 35.4 0.15 0.91 0.91 73 1013.7
20260830180518 25 178 14.5 41.8 0.15 0.91 0.91 75 1013.6
20260830180039 25 189 14.5 41.8 0.15 0.89 0.89 74 1013.7
20260830175537 24 211 17.7 37.0 0.15 0.89 0.89 74 1013.7
20260830175017 24 207 9.7 46.7 0.15 0.86 0.86 77 1013.8
20260830174517 24 199 17.7 46.7 0.15 0.86 0.86 76 1013.7
20260830174017 24 183 14.5 32.2 0.15 0.84 0.84 78 1013.7
20260830173537 23 182 12.9 27.4 0.13 0.81 0.81 78 1013.7
20260830173017 23 207 16.1 27.4 0.15 0.81 0.81 77 1013.9
20260830172517 23 193 11.3 29.0 0.18 0.81 0.81 77 1014.0
20260830172017 23 183 14.5 33.8 0.15 0.79 0.79 78 1014.0
20260830171517 23 180 14.5 33.8 0.18 0.79 0.79 80 1014.1
20260830171017 23 199 14.5 33.8 0.15 0.76 0.76 81 1014.1
20260830170516 22 186 11.3 29.0 0.18 0.76 0.76 82 1014.1
20260830170017 22 181 16.1 29.0 0.18 0.74 0.71 82 1014.2
20260830165518 22 182 14.5 30.6 0.18 0.74 0.71 84 1014.2
20260830165017 22 187 16.1 30.6 0.18 0.71 0.71 85 1014.2
20260830164517 22 185 11.3 32.2 0.18 0.71 0.71 87 1014.2
20260830164037 21 181 12.9 32.2 0.18 0.69 0.69 87 1014.2
20260830163518 21 183 14.5 29.0 0.18 0.69 0.69 88 1014.3
20260830163017 21 183 12.9 29.0 0.18 0.66 0.66 89 1014.6
20260830162536 20 182 12.9 29.0 0.18 0.64 0.64 90 1014.7
20260830162017 20 185 11.3 30.6 0.18 0.64 0.64 92 1014.8
20260830161538 20 179 12.9 30.6 0.18 0.61 0.61 92 1014.7
20260830161017 20 194 9.7 19.3 0.20 0.61 0.61 93 1014.8
20260830160518 20 162 9.7 20.9 0.18 0.58 0.58 93 1014.6
20260830160037 19 162 9.7 25.7 0.18 0.56 0.56 94 1014.6
20260830155517 18 161 12.9 25.7 0.18 0.56 0.56 94 1014.7
20260830155018 18 152 12.9 22.5 0.18 0.53 0.53 93 1014.6
20260830154516 18 157 9.7 22.5 0.18 0.53 0.53 94 1014.8
20260830154017 18 171 11.3 25.7 0.18 0.51 0.51 94 1015.0
20260830153538 18 163 12.9 25.7 0.18 0.51 0.51 94 1015.0
20260830153018 18 164 12.9 22.5 0.18 0.48 0.48 94 1015.0
20260830152517 18 162 11.3 25.7 0.15 0.46 0.46 94 1015.1
20260830152037 18 165 9.7 25.7 0.18 0.46 0.46 94 1015.3
20260830151537 18 167 9.7 17.7 0.15 0.43 0.43 94 1015.5
20260830151018 18 160 6.4 16.1 0.13 0.41 0.41 94 1015.7
20260830150517 18 181 6.4 17.7 0.15 0.41 0.41 94 1015.8
20260830150017 18 185 8.0 19.3 0.13 0.38 0.38 94 1015.8
20260830145516 18 172 9.7 22.5 0.15 0.38 0.38 94 1015.8
20260830145018 18 190 6.4 22.5 0.13 0.33 0.36 94 1015.9
20260830144517 18 184 9.7 24.1 0.15 0.33 0.36 94 1015.9
20260830144057 18 168 9.7 24.1 0.13 0.30 0.33 94 1015.8
20260830143518 18 164 8.0 16.1 0.13 0.30 0.33 94 1016.0
20260830143018 18 158 6.4 14.5 0.13 0.28 0.30 94 1016.2
20260830142517 17 160 8.0 16.1 0.13 0.28 0.30 94 1016.5
20260830142016 17 164 8.0 16.1 0.13 0.25 0.28 94 1016.6
20260830141516 17 177 4.8 14.5 0.13 0.25 0.28 94 1016.8
20260830141016 17 162 8.0 14.5 0.13 0.25 0.28 94 1016.6
20260830140518 17 159 4.8 11.3 0.13 0.25 0.25 94 1016.6
20260830140017 17 159 3.2 14.5 0.13 0.25 0.25 94 1016.8
20260830135516 17 153 8.0 14.5 0.10 0.23 0.23 94 1016.6
20260830135018 17 155 6.4 12.9 0.13 0.23 0.23 94 1016.8
20260830134518 17 163 4.8 11.3 0.10 0.20 0.20 94 1017.0
20260830134016 17 145 6.4 12.9 0.10 0.20 0.20 94 1016.9
20260830133516 17 147 4.8 12.9 0.13 0.20 0.20 94 1017.0
20260830133017 17 151 4.8 12.9 0.10 0.18 0.18 94 1016.9
20260830132516 17 157 4.8 12.9 0.10 0.18 0.18 94 1017.0
20260830132016 17 149 4.8 9.7 0.08 0.15 0.15 93 1017.0
20260830131558 17 134 3.2 6.4 0.08 0.15 0.15 93 1016.9
20260830131017 17 136 3.2 8.0 0.10 0.15 0.15 93 1017.1
20260830130516 17 135 4.8 11.3 0.08 0.13 0.13 93 1017.1
20260830130058 17 135 6.4 11.3 0.08 0.13 0.13 93 1017.1
20260830125516 17 151 4.8 9.7 0.08 0.13 0.13 93 1017.1
20260830125036 17 141 3.2 6.4 0.05 0.10 0.10 93 1017.1
20260830124517 17 135 1.6 6.4 0.05 0.10 0.10 93 1017.0
20260830124018 17 125 1.6 4.8 0.05 0.10 0.10 92 1017.1
20260830123518 17 123 3.2 4.8 0.03 0.08 0.08 92 1016.9
20260830123016 17 123 3.2 4.8 0.03 0.08 0.08 92 1016.9
20260830122516 17 94 1.6 6.4 0.03 0.08 0.08 92 1016.8
20260830122016 17 115 3.2 6.4 0.03 0.08 0.08 92 1016.6
20260830121516 18 116 4.8 6.4 0.03 0.08 0.08 92 1016.6
20260830121016 18 118 4.8 6.4 0.00 0.05 0.05 91 1016.5
20260830120516 18 143 4.8 6.4 0.00 0.05 0.05 91 1016.6
20260830120016 18 111 3.2 8.0 0.03 0.05 0.05 91 1016.5
20260830115536 18 50 4.8 8.0 0.03 0.05 0.05 90 1016.8
20260830115016 18 66 4.8 8.0 0.03 0.05 0.05 90 1016.6
20260830114537 18 55 4.8 11.3 0.03 0.05 0.05 90 1016.5
20260830114016 18 17 6.4 11.3 0.03 0.05 0.05 89 1016.2
20260830113516 18 12 3.2 6.4 0.03 0.05 0.05 89 1015.9
20260830113016 18 2 1.6 4.8 0.03 0.05 0.05 88 1015.6
20260830112516 18 0.0 4.8 0.03 0.05 0.05 87 1015.4
20260830112017 18 83 1.6 6.4 0.03 0.05 0.05 87 1015.1
20260830111517 18 79 3.2 6.4 0.03 0.05 0.05 86 1015.0
20260830111016 19 80 3.2 6.4 0.03 0.05 0.05 85 1015.0
20260830110516 19 108 1.6 4.8 0.03 0.05 0.05 84 1015.0
20260830110056 19 144 0.0 4.8 0.00 0.03 0.03 83 1014.9
20260830105516 19 143 1.6 6.4 0.00 0.03 0.03 83 1015.0
20260830105037 19 171 3.2 9.7 0.00 0.03 0.03 82 1014.8
20260830104517 19 165 4.8 19.3 0.00 0.03 0.03 81 1014.8
20260830104016 19 153 6.4 19.3 0.00 0.03 0.03 81 1014.7
20260830103516 19 171 4.8 16.1 0.00 0.03 0.03 81 1014.6
20260830103016 19 160 6.4 16.1 0.03 0.03 0.03 81 1014.3
20260830102517 19 170 8.0 19.3 0.03 0.03 0.03 82 1014.3
20260830102037 19 158 8.0 19.3 0.03 0.03 0.03 82 1014.3
20260830101516 19 159 8.0 17.7 0.03 0.03 0.03 83 1014.3
20260830101017 19 157 9.7 16.1 0.03 0.03 0.03 83 1014.3
20260830100516 19 159 6.4 14.5 0.03 0.03 0.03 83 1014.5
20260830100036 19 164 8.0 14.5 0.03 0.03 0.03 84 1014.7
20260830095516 18 168 6.4 12.9 0.03 0.03 0.03 84 1014.8
20260830095016 18 164 4.8 12.9 0.03 0.03 0.03 84 1014.7
20260830094516 18 164 6.4 12.9 0.03 0.03 0.03 84 1014.8
20260830094017 19 155 4.8 12.9 0.03 0.03 0.03 84 1014.8
20260830093516 19 159 6.4 12.9 0.03 0.03 0.03 83 1014.9
20260830093019 19 158 4.8 9.7 0.00 0.00 0.00 83 1015.1
20260830092516 19 170 1.6 6.4 0.00 0.00 0.00 83 1015.4
20260830092017 19 133 1.6 11.3 0.00 0.00 0.00 82 1015.5
20260830091517 19 131 3.2 11.3 0.00 0.00 0.00 82 1015.5
20260830091036 19 154 3.2 9.7 0.00 0.00 0.00 81 1015.7
20260830090516 19 184 1.6 6.4 0.00 0.00 0.00 81 1015.9
20260830090016 19 174 1.6 9.7 0.00 0.00 0.00 81 1016.0
20260830085516 19 176 4.8 9.7 0.00 0.00 0.00 82 1015.9
20260830085017 19 159 3.2 8.0 0.00 0.00 0.00 82 1015.8
20260830084516 19 180 1.6 6.4 0.00 0.00 0.00 82 1015.9
20260830084016 19 185 1.6 6.4 0.00 0.00 0.00 83 1015.9
20260830083516 18 189 0.0 6.4 0.00 0.00 0.00 83 1016.0
20260830083015 18 165 0.0 8.0 0.00 0.00 0.00 84 1015.9
20260830082516 18 153 1.6 8.0 0.00 0.00 0.00 85 1015.8
20260830082016 18 147 3.2 8.0 0.00 0.00 0.00 86 1015.8
20260830081536 18 140 3.2 6.4 0.00 0.00 0.00 87 1015.8
20260830081016 18 138 3.2 6.4 0.00 0.00 0.00 87 1015.7
20260830080517 18 127 3.2 6.4 0.00 0.00 0.00 88 1015.8
20260830080016 18 132 3.2 6.4 0.00 0.00 0.00 88 1015.8
20260830075516 18 130 3.2 6.4 0.00 0.00 0.00 88 1015.8
20260830075015 18 134 1.6 6.4 0.00 0.00 0.00 88 1015.9
20260830074516 18 127 3.2 4.8 0.00 0.00 0.00 88 1015.9
20260830074017 18 136 1.6 4.8 0.00 0.00 0.00 88 1015.9
20260830073515 18 124 3.2 4.8 0.00 0.00 0.00 88 1015.9
20260830073016 18 120 3.2 6.4 0.00 0.00 0.00 88 1015.9
20260830072516 18 118 3.2 6.4 0.00 0.00 0.00 88 1016.0
20260830072016 18 115 4.8 6.4 0.00 0.00 0.00 88 1015.9
20260830071516 18 120 3.2 4.8 0.00 0.00 0.00 87 1015.9
20260830071057 18 113 3.2 6.4 0.00 0.00 0.00 87 1015.9
20260830070517 18 114 3.2 6.4 0.00 0.00 0.00 87 1016.1
20260830070015 18 113 3.2 4.8 0.00 0.00 0.00 86 1016.1
20260830065517 18 114 3.2 4.8 0.00 0.00 0.00 86 1016.1
20260830065015 19 117 3.2 4.8 0.00 0.00 0.00 86 1016.2
20260830064516 19 111 3.2 4.8 0.00 0.00 0.00 85 1016.2
20260830064015 19 117 1.6 4.8 0.00 0.00 0.00 84 1016.2
20260830063516 19 115 0.0 3.2 0.00 0.00 0.00 84 1016.3
20260830063015 19 104 0.0 3.2 0.00 0.00 0.00 83 1016.4
20260830062539 20 0.0 0.0 0.00 0.00 0.00 83 1016.3
20260830062015 20 0.0 3.2 0.00 0.00 0.00 82 1016.3
20260830061515 20 117 0.0 4.8 0.00 0.00 0.00 82 1016.3
20260830061035 20 127 1.6 4.8 0.00 0.00 0.00 82 1016.3
20260830060515 20 127 0.0 6.4 0.00 0.00 0.00 82 1016.3
20260830060015 19 138 3.2 6.4 0.00 0.00 0.00 82 1016.3
20260830055515 19 140 3.2 9.7 0.00 0.00 0.00 82 1016.3
20260830055016 19 143 3.2 9.7 0.00 0.00 0.00 82 1016.3
20260830054515 19 138 3.2 6.4 0.00 0.00 0.00 82 1016.4
20260830054016 19 140 3.2 6.4 0.00 0.00 0.00 83 1016.4
20260830053535 19 145 1.6 6.4 0.00 0.00 0.00 83 1016.4
20260830053015 19 144 3.2 6.4 0.00 0.00 0.00 83 1016.4
20260830052515 19 140 3.2 6.4 0.00 0.00 0.00 83 1016.5
20260830052015 19 138 3.2 6.4 0.00 0.00 0.00 83 1016.5
20260830051515 19 140 3.2 8.0 0.00 0.00 0.00 84 1016.5
20260830051015 19 141 3.2 8.0 0.00 0.00 0.00 84 1016.4
20260830050515 19 143 3.2 8.0 0.00 0.00 0.00 84 1016.4
20260830050037 19 140 3.2 8.0 0.00 0.00 0.00 84 1016.4
20260830045516 19 139 3.2 8.0 0.00 0.00 0.00 84 1016.4
20260830045015 19 142 3.2 8.0 0.00 0.00 0.00 84 1016.4
20260830044515 19 133 3.2 6.4 0.00 0.00 0.00 84 1016.3
20260830044015 19 138 3.2 6.4 0.00 0.00 0.00 84 1016.3
20260830043536 19 131 3.2 6.4 0.00 0.00 0.00 85 1016.3
20260830043057 19 134 3.2 6.4 0.00 0.00 0.00 85 1016.3
20260830042515 19 129 3.2 6.4 0.00 0.00 0.00 85 1016.3
20260830042035 19 132 3.2 6.4 0.00 0.00 0.00 85 1016.4
20260830041535 20 132 3.2 6.4 0.00 0.00 0.00 85 1016.4
20260830041015 20 136 3.2 6.4 0.00 0.00 0.00 85 1016.5
20260830040535 20 136 3.2 6.4 0.00 0.00 0.00 85 1016.5
20260830040015 20 136 3.2 6.4 0.00 0.00 0.00 85 1016.6
20260830035516 20 143 1.6 6.4 0.00 0.00 0.00 85 1016.6
20260830035017 20 137 0.0 4.8 0.00 0.00 0.00 85 1016.7
20260830034536 20 132 1.6 4.8 0.00 0.00 0.00 85 1016.7
20260830034016 20 138 1.6 6.4 0.00 0.00 0.00 85 1016.7
20260830033516 20 157 0.0 6.4 0.00 0.00 0.00 85 1016.8
20260830033016 20 155 1.6 8.0 0.00 0.00 0.00 85 1016.8
20260830032516 20 165 3.2 8.0 0.00 0.00 0.00 85 1016.7
20260830032036 20 169 1.6 6.4 0.00 0.00 0.00 85 1016.7
20260830031517 20 179 1.6 6.4 0.00 0.00 0.00 85 1016.7
20260830031016 20 164 3.2 9.7 0.00 0.00 0.00 85 1016.7
20260830030517 20 145 4.8 9.7 0.00 0.00 0.00 85 1016.6
20260830030057 20 152 3.2 4.8 0.00 0.00 0.00 85 1016.6
20260830025536 20 156 1.6 6.4 0.00 0.00 0.00 85 1016.7
20260830025015 20 151 1.6 6.4 0.00 0.00 0.00 85 1016.7
20260830024517 20 155 1.6 6.4 0.00 0.00 0.00 85 1016.7
20260830024016 20 154 1.6 3.2 0.00 0.00 0.00 85 1016.6
20260830023536 20 162 0.0 4.8 0.00 0.00 0.00 85 1016.7
20260830023016 20 177 1.6 6.4 0.00 0.00 0.00 85 1016.6
20260830022516 20 163 3.2 12.9 0.00 0.00 0.00 85 1016.5
20260830022015 20 151 3.2 12.9 0.00 0.00 0.00 85 1016.3
20260830021517 20 164 4.8 11.3 0.00 0.00 0.00 85 1016.4
20260830021015 20 156 4.8 11.3 0.00 0.00 0.00 85 1016.4
20260830020516 20 164 4.8 9.7 0.00 0.00 0.00 85 1016.3
20260830020016 20 161 3.2 8.0 0.00 0.00 0.00 85 1016.3
20260830015516 20 161 3.2 11.3 0.00 0.00 0.00 85 1016.3
20260830015015 20 152 4.8 11.3 0.00 0.00 0.00 86 1016.3
20260830014515 20 151 6.4 11.3 0.00 0.00 0.00 86 1016.1
20260830014037 20 162 3.2 8.0 0.00 0.00 0.00 86 1016.2
20260830013516 20 146 3.2 11.3 0.00 0.00 0.00 86 1016.3
20260830013015 20 149 6.4 11.3 0.00 0.00 0.00 86 1016.2